| time (UTC) | temp F | wind direction | speed knots | gust knots | rain 1hr in | rain 24hr in | rain mn in | humidity % | barometer mb |
| 20260505211532 | 88 | 170 | 6.1 | 12.2 | 0.00 | 0.00 | 0.00 | 63 | 1004.0 |
| 20260505210033 | 88 | 205 | 6.1 | 11.3 | 0.00 | 0.00 | 0.00 | 63 | 1004.1 |
| 20260505204530 | 88 | 243 | 6.1 | 14.8 | 0.00 | 0.00 | 0.00 | 63 | 1004.2 |
| 20260505203034 | 88 | 195 | 7.8 | 14.8 | 0.00 | 0.00 | 0.00 | 63 | 1004.5 |
| 20260505201533 | 87 | 179 | 7.0 | 14.8 | 0.00 | 0.00 | 0.00 | 65 | 1004.7 |
| 20260505200040 | 86 | 201 | 7.8 | 16.5 | 0.00 | 0.00 | 0.00 | 66 | 1004.8 |
| 20260505194532 | 85 | 211 | 7.8 | 16.5 | 0.00 | 0.00 | 0.00 | 67 | 1004.7 |
| 20260505193034 | 85 | 192 | 8.7 | 14.8 | 0.00 | 0.00 | 0.00 | 66 | 1004.8 |
| 20260505191535 | 84 | 197 | 7.8 | 14.8 | 0.00 | 0.00 | 0.00 | 68 | 1005.0 |
| 20260505190032 | 83 | 185 | 8.7 | 15.6 | 0.00 | 0.00 | 0.00 | 69 | 1005.2 |
| 20260505184532 | 82 | 175 | 7.8 | 18.2 | 0.00 | 0.00 | 0.00 | 70 | 1005.2 |
| 20260505183037 | 82 | 209 | 8.7 | 19.1 | 0.00 | 0.00 | 0.00 | 70 | 1005.3 |
| 20260505181530 | 82 | 178 | 8.7 | 17.4 | 0.00 | 0.00 | 0.00 | 71 | 1005.4 |
| 20260505180032 | 81 | 180 | 7.8 | 17.4 | 0.00 | 0.00 | 0.00 | 72 | 1005.6 |
| 20260505174531 | 80 | 200 | 8.7 | 15.6 | 0.00 | 0.00 | 0.00 | 73 | 1005.6 |
| 20260505173032 | 81 | 183 | 9.6 | 17.4 | 0.00 | 0.00 | 0.00 | 74 | 1005.4 |
| 20260505171532 | 79 | 207 | 9.6 | 22.6 | 0.00 | 0.00 | 0.00 | 75 | 1005.3 |
| 20260505170033 | 79 | 191 | 9.6 | 16.5 | 0.00 | 0.00 | 0.00 | 75 | 1005.4 |
| 20260505164531 | 78 | 214 | 8.7 | 20.9 | 0.00 | 0.00 | 0.00 | 76 | 1005.2 |
| 20260505163032 | 78 | 166 | 9.6 | 20.0 | 0.00 | 0.00 | 0.00 | 76 | 1005.3 |
| 20260505161540 | 77 | 187 | 8.7 | 17.4 | 0.00 | 0.00 | 0.00 | 78 | 1005.5 |
| 20260505153032 | 76 | 233 | 7.8 | 17.4 | 0.00 | 0.00 | 0.00 | 79 | 1005.5 |
| 20260505151531 | 75 | 193 | 10.4 | 20.0 | 0.00 | 0.00 | 0.00 | 80 | 1005.4 |
| 20260505124529 | 70 | 169 | 7.0 | 18.2 | 0.00 | 0.00 | 0.00 | 88 | 1004.4 |
| 20260505123033 | 70 | 228 | 9.6 | 17.4 | 0.00 | 0.00 | 0.00 | 88 | 1004.3 |
| 20260505121537 | 70 | 214 | 9.6 | 21.7 | 0.00 | 0.00 | 0.00 | 88 | 1004.0 |
| 20260505120031 | 70 | 175 | 7.8 | 19.1 | 0.00 | 0.00 | 0.00 | 88 | 1004.1 |
| 20260505114530 | 70 | 191 | 8.7 | 16.5 | 0.00 | 0.00 | 0.00 | 88 | 1004.0 |
| 20260505113030 | 70 | 188 | 9.6 | 24.3 | 0.00 | 0.00 | 0.00 | 88 | 1004.1 |
| 20260505111530 | 70 | 183 | 8.7 | 16.5 | 0.00 | 0.00 | 0.00 | 88 | 1003.9 |
| 20260505101537 | 70 | 171 | 7.8 | 15.6 | 0.00 | 0.00 | 0.00 | 87 | 1004.1 |
| 20260505100035 | 70 | 185 | 7.8 | 19.1 | 0.00 | 0.00 | 0.00 | 87 | 1003.9 |
| 20260505094528 | 70 | 189 | 8.7 | 18.2 | 0.00 | 0.00 | 0.00 | 87 | 1004.2 |
| 20260505093033 | 70 | 173 | 7.0 | 19.1 | 0.00 | 0.00 | 0.00 | 87 | 1004.4 |
| 20260505091534 | 70 | 180 | 9.6 | 18.2 | 0.00 | 0.00 | 0.00 | 87 | 1004.5 |
| 20260505090040 | 70 | 195 | 7.0 | 14.8 | 0.00 | 0.00 | 0.00 | 87 | 1004.5 |
| 20260505084539 | 70 | 174 | 8.7 | 19.1 | 0.00 | 0.00 | 0.00 | 87 | 1004.5 |
| 20260505083029 | 70 | 179 | 8.7 | 15.6 | 0.00 | 0.00 | 0.00 | 87 | 1004.4 |
| 20260505081531 | 69 | 200 | 10.4 | 20.0 | 0.00 | 0.00 | 0.00 | 88 | 1004.6 |
| 20260505080041 | 69 | 199 | 8.7 | 20.9 | 0.00 | 0.00 | 0.00 | 87 | 1004.7 |
| 20260505074529 | 69 | 167 | 8.7 | 20.9 | 0.00 | 0.00 | 0.00 | 87 | 1004.9 |
| 20260505073035 | 70 | 195 | 10.4 | 19.1 | 0.00 | 0.00 | 0.00 | 86 | 1005.1 |
| 20260505071542 | 70 | 179 | 8.7 | 20.9 | 0.00 | 0.00 | 0.00 | 86 | 1005.3 |
| 20260505070030 | 70 | 197 | 9.6 | 19.1 | 0.00 | 0.00 | 0.00 | 85 | 1005.5 |
| 20260505064534 | 70 | 170 | 8.7 | 18.2 | 0.00 | 0.00 | 0.00 | 84 | 1005.8 |
| 20260505063030 | 71 | 214 | 8.7 | 18.2 | 0.00 | 0.00 | 0.00 | 83 | 1005.9 |
| 20260505061537 | 71 | 204 | 7.8 | 17.4 | 0.00 | 0.00 | 0.00 | 83 | 1005.9 |
| 20260505060036 | 71 | 208 | 8.7 | 19.1 | 0.00 | 0.00 | 0.00 | 82 | 1005.8 |
| 20260505054536 | 71 | 168 | 9.6 | 22.6 | 0.00 | 0.00 | 0.00 | 81 | 1005.8 |
| 20260505053035 | 72 | 189 | 8.7 | 20.0 | 0.00 | 0.00 | 0.00 | 81 | 1006.1 |
| 20260505051532 | 72 | 200 | 9.6 | 17.4 | 0.00 | 0.00 | 0.00 | 80 | 1006.3 |
| 20260505041530 | 72 | 195 | 5.2 | 13.9 | 0.00 | 0.00 | 0.00 | 79 | 1006.5 |
| 20260505040032 | 72 | 199 | 7.0 | 13.9 | 0.00 | 0.00 | 0.00 | 78 | 1006.4 |
| 20260505034529 | 72 | 160 | 7.0 | 13.9 | 0.00 | 0.00 | 0.00 | 78 | 1006.2 |
| 20260505033038 | 72 | 175 | 7.8 | 16.5 | 0.00 | 0.00 | 0.00 | 78 | 1006.3 |
| 20260505031543 | 72 | 172 | 8.7 | 13.9 | 0.00 | 0.00 | 0.00 | 77 | 1006.3 |
| 20260505030032 | 72 | 173 | 6.1 | 13.0 | 0.00 | 0.00 | 0.00 | 77 | 1006.5 |
| 20260505024545 | 72 | 179 | 6.1 | 12.2 | 0.00 | 0.00 | 0.00 | 76 | 1006.3 |
| 20260505023040 | 73 | 168 | 5.2 | 11.3 | 0.00 | 0.00 | 0.00 | 75 | 1006.1 |
| 20260505021533 | 73 | 175 | 6.1 | 9.6 | 0.00 | 0.00 | 0.00 | 75 | 1006.2 |
| 20260505020032 | 73 | 200 | 7.0 | 11.3 | 0.00 | 0.00 | 0.00 | 74 | 1006.1 |
| 20260505014539 | 74 | 177 | 6.1 | 11.3 | 0.00 | 0.00 | 0.00 | 73 | 1006.2 |
| 20260505013029 | 74 | 201 | 7.0 | 12.2 | 0.00 | 0.00 | 0.00 | 71 | 1006.1 |
| 20260505011529 | 75 | 170 | 8.7 | 13.0 | 0.00 | 0.00 | 0.00 | 71 | 1006.1 |
| 20260505010031 | 75 | 173 | 7.0 | 14.8 | 0.00 | 0.00 | 0.00 | 70 | 1006.2 |
| 20260505004530 | 75 | 152 | 9.6 | 16.5 | 0.00 | 0.00 | 0.00 | 69 | 1006.1 |
| 20260505003032 | 76 | 191 | 10.4 | 17.4 | 0.00 | 0.00 | 0.00 | 67 | 1006.4 |
| 20260505001534 | 76 | 168 | 6.1 | 21.7 | 0.00 | 0.00 | 0.00 | 67 | 1006.6 |
| 20260505000029 | 77 | 195 | 10.4 | 23.5 | 0.00 | 0.00 | 0.00 | 66 | 1006.7 |
| 20260504234533 | 77 | 170 | 10.4 | 18.2 | 0.00 | 0.00 | 0.00 | 65 | 1006.5 |
| 20260504233032 | 77 | 168 | 10.4 | 20.9 | 0.00 | 0.00 | 0.00 | 65 | 1006.8 |
| 20260504231531 | 78 | 165 | 9.6 | 20.9 | 0.00 | 0.00 | 0.00 | 64 | 1006.8 |
| 20260504230030 | 78 | 199 | 10.4 | 19.1 | 0.00 | 0.00 | 0.00 | 62 | 1007.0 |
| 20260504224536 | 79 | 204 | 13.0 | 22.6 | 0.00 | 0.00 | 0.00 | 61 | 1007.1 |
| 20260504223028 | 78 | 193 | 11.3 | 20.9 | 0.00 | 0.00 | 0.00 | 63 | 1007.2 |
| 20260504221532 | 78 | 174 | 7.8 | 23.5 | 0.00 | 0.00 | 0.00 | 62 | 1007.2 |
| 20260504220033 | 79 | 158 | 11.3 | 22.6 | 0.00 | 0.00 | 0.00 | 61 | 1007.4 |
| 20260504214532 | 79 | 217 | 12.2 | 26.1 | 0.00 | 0.00 | 0.00 | 60 | 1007.6 |
| 20260504213031 | 80 | 168 | 8.7 | 20.9 | 0.00 | 0.00 | 0.00 | 60 | 1007.7 |